Temp
52 51 50 48 48 48 48 48 45 39 41 44 45 48 48 43 45 45 45 46 47 47 48 49 51 52 52 52 52 52 52 51 51 50 50 49 49 49
48 48 47 46 47 47 46 46 45 43 39 44 45 45 46 45 45 42 41 46 46 45 45 46 48 49 50 50 50 50 50 50 50 50 50 49 49 48
46 47 45 46 45 45 45 45 44 43 40 43 44 43 42 44 42 40 41 39 39 44 44 45 45 46 47 48 48 48 49 49 49 49 49 49 48 48
45 46 45 47 45 45 44 43 43 43 41 39 42 41 41 39 39 39 44 46 40 45 44 44 45 44 45 45 45 45 46 46 47 47 47 47 47 47
46 45 45 45 43 43 43 42 42 44 41 39 39 40 37 38 37 37 37 39 42 46 44 44 44 44 44 44 44 45 44 45 44 44 44 44 44 45
45 45 45 44 43 43 42 41 42 40 37 35 38 38 36 37 34 33 35 37 37 43 44 43 43 44 43 44 44 44 43 43 42 42 42 41 40 41
43 44 44 44 43 41 42 40 38 37 36 35 35 35 35 36 30 32 33 35 36 33 36 38 37 39 40 43 43 43 41 40 41 43 43 42 41 41
42 42 40 39 38 37 37 37 34 29 28 27 27 27 28 29 29 29 31 32 30 35 32 34 33 35 36 34 40 41 41 41 42 42 42 42 41 40
39 39 38 37 33 32 34 34 33 34 30 28 25 26 25 27 27 27 28 28 27 32 33 31 31 32 36 39 40 40 41 41 41 41 41 40 40 39
34 34 31 30 32 31 29 28 29 29 30 30 27 27 27 28 27 29 28 29 32 34 34 28 33 32 34 36 39 40 40 40 40 40 40 39 39 38
31 30 30 30 33 34 29 28 28 29 34 34 34 35 34 34 34 30 28 28 26 28 30 29 32 31 27 31 33 39 39 39 39 39 39 39 38 37
30 30 32 31 32 32 28 27 26 27 26 27 27 29 31 30 32 30 28 25 26 25 30 25 30 30 27 27 30 31 34 38 38 38 38 38 38 31
28 27 27 31 32 32 31 28 27 26 25 24 24 25 26 26 26 27 27 24 23 23 31 31 27 30 28 27 27 28 29 28 27 29 35 36 36 34
28 27 28 30 31 31 28 29 28 25 21 20 20 21 21 22 23 24 24 25 27 26 29 32 30 29 27 24 23 26 25 23 23 23 23 30 34 34
28 28 29 29 30 28 28 27 25 22 19 17 18 18 20 21 23 23 24 25 25 26 30 33 32 30 28 25 24 22 24 24 23 22 21 22 22 23
27 27 26 27 25 25 25 25 23 21 19 18 17 18 19 18 18 20 19 20 20 21 28 34 33 31 27 27 27 24 23 21 23 22 21 19 20 19
24 24 23 22 21 22 22 21 20 19 18 17 16 16 15 15 16 18 18 18 17 19 23 31 32 31 30 29 23 24 23 22 24 21 24 20 19 21
23 20 16 15 17 19 18 17 18 17 16 16 14 14 12 12 13 15 16 15 16 16 23 28 28 27 27 28 30 25 21 23 24 26 24 21 17 17
20 18 14 14 15 18 17 16 14 15 15 13 12 11 10 12 10 11 13 14 13 17 19 28 27 26 23 21 25 32 23 23 23 20 22 19 15 21
20 18 15 14 15 15 15 14 13 11 9 9 9 7 7 8 7 8 11 11 12 14 17 27 27 27 22 20 22 20 32 21 21 16 17 19 23 29
18 18 16 16 14 14 12 9 5 4 3 -0 0 1 2 3 4 6 9 10 11 14 15 25 28 28 26 25 18 18 18 30 27 22 19 16 17 19
16 16 16 14 12 11 8 4 0 -3 -1 -0 0 -4 -4 2 4 5 7 7 11 13 15 19 28 28 25 24 22 13 16 19 26 31 30 28 19 14
13 13 11 9 9 8 9 2 -1 -6 -0 3 2 3 -0 2 5 7 6 8 11 12 14 17 25 27 26 26 23 18 18 15 19 20 19 29 30 31
MSLP
1019.73 1020.10 1020.73 1021.11 1021.60 1022.02 1022.39 1022.84 1023.20 1023.68 1023.59 1023.37 1023.55 1023.20 1023.21 1023.62 1023.79 1023.91 1023.79 1023.58 1023.70 1023.82 1023.89 1023.91 1023.88 1023.85 1023.79 1023.85 1023.99 1024.01 1024.07 1024.15 1024.36 1024.46 1024.55 1024.61 1024.59 1024.52
1019.43 1019.97 1020.54 1021.00 1021.58 1021.96 1022.17 1022.78 1023.10 1023.55 1023.66 1023.46 1023.53 1023.39 1023.28 1023.45 1023.34 1023.44 1023.57 1023.31 1023.45 1023.44 1023.50 1023.52 1023.47 1023.37 1023.37 1023.22 1023.15 1023.26 1023.49 1023.64 1023.76 1023.79 1023.81 1023.85 1023.91 1023.84
1019.46 1020.04 1020.46 1020.91 1021.44 1022.05 1022.40 1022.90 1023.30 1023.59 1023.66 1023.41 1023.37 1023.31 1023.33 1023.20 1022.96 1022.87 1022.87 1022.90 1022.82 1022.89 1022.96 1022.89 1022.78 1022.65 1022.38 1022.47 1022.71 1022.77 1022.74 1022.82 1022.96 1023.06 1023.05 1023.12 1023.18 1023.20
1019.38 1019.90 1020.45 1020.93 1021.39 1022.03 1022.39 1023.01 1023.20 1023.38 1023.64 1023.50 1023.39 1023.33 1023.32 1023.00 1022.79 1022.52 1022.19 1022.01 1022.06 1021.97 1021.88 1021.84 1021.75 1021.60 1021.36 1021.24 1021.45 1021.56 1021.75 1021.94 1022.02 1022.40 1022.40 1022.37 1022.45 1022.55
1019.02 1019.57 1020.22 1020.79 1021.63 1022.08 1022.36 1022.81 1022.94 1023.05 1023.33 1023.44 1023.29 1023.16 1023.15 1022.99 1022.77 1022.33 1022.08 1021.67 1021.43 1021.32 1021.09 1020.77 1020.67 1020.43 1020.25 1020.22 1020.13 1020.07 1020.50 1021.11 1021.30 1021.60 1021.70 1021.74 1021.78 1021.94
1019.22 1019.80 1020.21 1020.74 1021.23 1021.78 1022.27 1022.52 1022.80 1022.88 1023.22 1023.51 1023.50 1023.53 1023.47 1023.25 1023.08 1022.87 1022.21 1021.66 1021.15 1020.88 1020.39 1020.01 1019.85 1019.42 1019.05 1018.90 1018.94 1019.20 1019.40 1019.99 1020.66 1021.05 1020.86 1020.91 1021.02 1021.23
1019.23 1019.75 1020.36 1020.83 1021.27 1021.71 1022.12 1022.57 1022.77 1023.10 1023.32 1023.47 1023.53 1023.55 1023.32 1023.14 1023.34 1022.89 1022.35 1021.61 1020.77 1021.03 1020.25 1019.26 1019.19 1018.60 1018.27 1017.95 1017.95 1018.19 1018.77 1019.13 1019.62 1019.72 1019.84 1019.93 1020.11 1020.30
1019.34 1020.12 1020.65 1021.16 1021.72 1022.15 1022.40 1022.64 1022.98 1023.27 1023.53 1023.75 1023.81 1023.74 1023.71 1023.52 1023.37 1023.24 1022.73 1021.97 1020.30 1020.39 1019.98 1018.76 1018.85 1018.02 1017.61 1017.38 1017.20 1017.63 1017.82 1018.09 1018.44 1018.69 1018.91 1019.07 1019.33 1019.51
1019.74 1020.45 1021.17 1022.00 1022.36 1022.65 1022.99 1023.23 1023.32 1023.39 1023.61 1023.82 1023.84 1023.86 1023.76 1023.66 1023.48 1022.86 1022.43 1021.91 1021.03 1020.33 1020.32 1018.53 1018.35 1017.62 1016.96 1016.67 1016.59 1016.51 1016.88 1017.34 1017.68 1017.93 1018.09 1018.38 1018.65 1018.77
1020.36 1021.02 1021.53 1022.24 1022.69 1022.93 1023.15 1023.28 1023.49 1023.65 1023.66 1023.67 1023.74 1023.71 1023.64 1023.36 1023.14 1022.59 1022.03 1021.23 1020.24 1019.56 1019.63 1018.45 1017.65 1016.84 1016.46 1016.05 1015.75 1015.73 1016.00 1016.44 1016.88 1017.15 1017.47 1017.78 1018.00 1018.12
1021.16 1021.53 1021.84 1022.41 1022.80 1023.04 1023.20 1023.40 1023.54 1023.47 1023.35 1023.35 1023.24 1022.94 1022.65 1022.50 1022.29 1022.01 1021.56 1020.98 1019.53 1018.46 1018.50 1018.01 1016.93 1016.40 1016.16 1015.66 1015.29 1015.17 1015.29 1015.81 1016.23 1016.69 1017.05 1017.33 1017.45 1017.49
1021.56 1022.00 1022.41 1022.84 1022.96 1022.95 1023.20 1023.48 1023.57 1023.65 1023.67 1023.52 1023.31 1022.93 1022.62 1022.43 1022.17 1022.05 1021.57 1020.83 1020.03 1018.43 1017.35 1017.45 1016.54 1016.40 1015.74 1015.01 1014.81 1014.91 1014.98 1015.47 1015.93 1016.33 1016.69 1016.89 1016.96 1017.05
1021.86 1022.41 1022.69 1022.96 1022.97 1022.90 1023.05 1023.35 1023.68 1023.94 1023.95 1023.80 1023.44 1022.96 1022.60 1022.36 1022.18 1021.97 1021.58 1021.13 1020.23 1018.71 1017.20 1016.95 1015.96 1015.71 1015.31 1015.09 1014.97 1014.91 1015.00 1015.43 1015.92 1016.19 1016.31 1016.47 1016.49 1016.46
1022.28 1022.75 1022.88 1022.82 1022.87 1023.01 1023.44 1023.65 1023.89 1024.12 1024.10 1023.87 1023.46 1022.98 1022.52 1022.19 1021.81 1021.41 1020.98 1020.18 1019.52 1018.52 1016.85 1016.36 1015.27 1015.03 1014.70 1015.00 1015.12 1015.02 1015.10 1015.42 1015.85 1016.29 1016.20 1016.15 1016.03 1015.93
1022.69 1022.88 1022.82 1023.00 1023.16 1023.56 1023.72 1023.81 1023.89 1023.96 1023.84 1023.61 1023.26 1022.89 1022.57 1022.11 1021.42 1020.79 1020.11 1019.26 1018.20 1017.13 1016.03 1014.89 1014.48 1014.24 1014.33 1014.33 1014.67 1014.90 1015.27 1015.46 1015.68 1015.87 1015.96 1016.08 1015.93 1015.76
1022.79 1022.99 1023.19 1023.34 1023.59 1023.81 1023.91 1023.96 1024.01 1023.95 1023.87 1023.59 1023.29 1022.88 1022.50 1021.92 1021.34 1020.72 1019.61 1018.68 1017.56 1015.55 1014.70 1013.59 1013.37 1013.39 1013.59 1013.95 1013.92 1014.56 1014.96 1015.32 1015.23 1015.37 1015.62 1015.66 1015.38 1015.36
1022.93 1023.13 1023.44 1023.70 1023.91 1024.00 1024.12 1024.15 1024.14 1024.05 1023.91 1023.76 1023.46 1023.03 1022.49 1021.94 1021.24 1020.54 1019.78 1018.76 1017.70 1016.01 1013.89 1012.65 1012.60 1012.68 1012.97 1013.39 1013.75 1014.06 1014.52 1014.80 1014.64 1014.98 1015.32 1015.39 1015.03 1014.83
1022.90 1023.36 1023.85 1024.11 1024.20 1024.22 1024.25 1024.24 1024.20 1024.14 1024.09 1023.98 1023.72 1023.15 1022.71 1022.13 1021.30 1020.57 1019.85 1018.93 1017.58 1015.95 1013.98 1012.48 1012.41 1012.59 1012.97 1013.15 1012.95 1013.34 1013.83 1014.13 1014.15 1014.43 1014.63 1015.04 1014.99 1014.58
1023.16 1023.66 1024.07 1024.36 1024.42 1024.32 1024.25 1024.26 1024.34 1024.40 1024.42 1024.24 1023.79 1023.28 1023.01 1022.40 1021.82 1020.91 1019.89 1018.94 1017.86 1016.06 1014.18 1012.36 1012.18 1012.25 1012.54 1012.76 1012.65 1012.50 1013.15 1013.48 1013.80 1014.04 1014.12 1014.48 1014.49 1014.12
1023.33 1023.80 1024.11 1024.32 1024.40 1024.41 1024.42 1024.49 1024.49 1024.55 1024.51 1024.16 1023.72 1023.37 1023.08 1022.55 1021.85 1021.02 1019.99 1018.75 1017.97 1016.29 1014.16 1012.25 1011.86 1011.82 1012.00 1012.31 1012.61 1012.59 1012.43 1012.89 1013.39 1013.59 1013.89 1013.75 1013.54 1013.26
1023.54 1023.82 1024.10 1024.30 1024.43 1024.50 1024.55 1024.59 1024.66 1024.64 1024.39 1024.15 1023.77 1023.44 1022.97 1022.61 1021.90 1021.06 1020.18 1018.85 1018.01 1016.57 1014.64 1012.45 1011.50 1011.51 1011.77 1012.07 1012.76 1012.85 1012.49 1012.24 1012.56 1012.89 1013.23 1013.51 1013.45 1013.28
1023.66 1023.80 1023.98 1024.21 1024.36 1024.41 1024.44 1024.44 1024.41 1024.20 1023.96 1023.59 1023.09 1022.82 1022.50 1022.22 1021.72 1020.60 1019.98 1018.98 1017.63 1016.48 1014.87 1013.48 1011.62 1011.21 1011.55 1011.77 1012.21 1012.83 1012.65 1012.41 1012.21 1012.21 1012.41 1012.56 1012.81 1013.09
1023.80 1023.98 1024.18 1024.26 1024.33 1024.39 1024.35 1024.31 1024.25 1024.05 1023.71 1023.35 1022.98 1022.55 1022.09 1021.56 1021.23 1020.53 1019.80 1018.70 1017.53 1016.27 1015.03 1013.29 1011.69 1010.81 1011.07 1011.33 1011.74 1012.33 1012.47 1012.52 1012.52 1012.35 1012.12 1011.85 1011.96 1012.02
Wind_Speed
7 6 4 4 4 3 3 2 3 2 4 3 3 2 2 2 5 5 6 11 17 17 19 20 21 23 23 22 23 22 20 20 19 18 16 17 17 18
4 7 5 3 3 3 4 3 2 2 2 2 3 2 2 3 6 4 7 13 13 16 18 20 22 24 23 24 24 22 22 21 22 20 19 18 18 19
6 7 6 6 4 3 3 2 2 2 4 2 3 2 2 5 5 4 6 6 6 15 19 22 23 25 28 24 22 22 21 23 24 22 21 20 20 20
8 7 7 4 6 4 3 3 3 3 3 6 3 3 5 5 6 6 6 5 6 12 18 22 26 27 28 27 24 20 23 26 22 21 22 21 21 22
9 9 8 7 4 3 3 3 3 2 3 3 4 2 3 3 5 4 5 7 6 14 17 21 22 26 26 26 27 26 20 26 18 19 19 19 20 21
6 6 7 6 5 4 3 3 3 2 2 2 4 6 2 3 3 4 8 5 6 6 10 13 15 20 24 26 26 22 19 15 13 22 19 17 16 18
7 6 5 4 4 4 1 0 2 1 1 2 4 4 4 4 4 3 7 10 10 4 9 10 8 10 11 19 20 16 17 19 26 22 19 17 16 15
8 6 7 12 12 11 10 8 5 2 0 2 2 3 4 4 2 4 8 10 13 3 5 11 5 9 8 5 12 13 19 21 22 18 17 16 14 14
7 8 7 6 7 5 6 5 5 4 2 2 3 3 4 3 6 9 8 10 12 11 11 15 4 10 8 9 17 20 20 17 14 15 16 13 14 13
7 7 8 6 6 5 4 4 3 2 1 2 4 6 6 6 6 9 11 12 13 10 7 14 9 10 8 8 17 20 19 15 13 13 12 12 11 12
7 6 6 6 7 6 4 4 4 4 6 11 13 15 16 15 14 8 8 9 12 12 4 8 10 9 4 7 8 19 13 11 12 10 7 8 9 10
5 6 9 5 5 5 3 3 4 4 6 7 7 8 9 8 13 7 8 11 11 13 5 3 8 6 5 3 4 4 3 11 11 8 8 9 11 4
4 3 3 5 4 4 7 4 3 4 5 5 6 5 5 5 6 6 8 8 10 13 13 7 4 7 6 1 1 1 5 3 3 3 5 9 10 10
4 3 2 4 5 6 5 6 6 3 2 3 4 5 5 6 7 8 11 11 10 16 18 15 7 6 3 2 3 1 1 1 2 2 2 6 9 10
4 2 3 4 6 5 5 5 3 2 3 3 5 6 6 8 11 10 10 13 14 15 14 16 11 7 4 2 3 2 3 2 3 3 2 3 3 2
3 3 3 4 5 2 2 3 3 4 5 5 6 7 7 8 8 8 10 11 12 13 13 13 11 9 4 5 3 3 3 3 2 3 2 2 2 3
3 2 2 2 2 2 2 3 4 5 5 5 6 7 8 9 8 9 9 11 10 12 13 7 8 6 4 4 2 3 3 3 3 2 3 2 3 4
2 2 2 0 0 1 1 3 3 4 5 6 6 6 8 9 9 10 9 9 11 11 13 2 3 3 2 2 5 3 2 3 2 4 3 2 3 3
2 3 2 2 2 1 2 3 4 4 6 5 6 6 7 8 10 10 9 9 11 11 13 3 3 2 4 5 2 10 4 3 2 1 3 3 3 4
3 3 2 2 0 1 3 4 4 3 4 5 6 5 6 7 9 9 9 10 11 12 12 4 3 5 5 6 3 3 10 3 3 2 1 1 3 7
2 1 1 1 1 2 2 3 2 3 4 4 4 4 4 5 8 8 10 12 13 10 11 7 3 4 3 4 2 2 3 10 6 4 3 2 1 2
1 2 1 0 1 3 2 2 3 3 3 4 4 3 4 4 8 8 9 11 10 10 10 10 9 4 3 4 4 3 2 2 3 9 9 8 5 2
1 1 1 1 2 2 3 2 3 4 4 5 4 6 4 6 7 8 9 10 10 10 10 10 9 3 4 5 4 3 3 1 0 1 3 11 14 13
Wind_Direction
194 170 180 185 162 137 119 140 163 196 227 215 232 287 277 302 257 242 233 237 232 232 231 229 230 234 235 235 238 240 243 246 253 257 266 278 284 285
156 157 156 151 143 138 141 152 163 173 248 210 246 260 298 288 272 253 250 250 249 237 236 237 238 241 242 239 237 237 244 251 253 254 259 266 273 275
145 166 149 143 138 142 124 128 181 181 257 257 229 267 269 268 275 232 239 230 229 240 241 243 243 242 242 244 244 241 240 248 250 252 255 262 268 275
158 148 142 150 139 143 138 209 212 214 242 274 234 241 236 258 259 275 270 250 229 237 241 243 243 245 243 241 238 230 240 247 243 248 255 260 267 274
157 158 152 142 151 172 167 222 223 249 239 253 283 249 265 290 290 282 263 265 264 263 254 250 249 249 248 244 235 231 247 246 240 248 251 252 259 270
125 134 143 158 162 174 206 243 257 270 302 281 291 298 275 313 276 280 293 282 281 268 263 262 260 256 249 244 241 240 248 232 264 252 247 246 250 257
138 134 135 135 95 90 132 67 19 262 288 292 291 288 283 293 292 290 289 296 288 254 275 269 261 261 257 250 244 216 224 238 239 245 244 246 250 247
138 112 91 97 93 87 83 81 91 98 236 225 239 275 288 290 322 302 307 298 296 259 266 279 253 256 242 218 215 224 238 232 240 234 244 244 235 245
104 116 106 93 86 90 71 61 52 27 340 286 281 277 296 290 289 293 285 280 282 289 296 287 259 256 249 238 227 228 231 229 224 234 237 228 241 249
89 99 106 94 73 72 55 27 19 347 311 258 240 259 253 265 257 275 279 279 280 281 262 278 276 265 254 240 238 238 221 215 227 225 218 233 238 246
89 87 96 97 70 38 59 19 351 354 350 332 317 308 306 307 305 306 294 294 291 291 263 265 280 273 237 248 229 222 206 213 203 202 212 241 250 261
85 81 81 82 52 42 73 45 6 357 340 328 320 316 312 298 303 293 297 295 292 292 277 252 289 270 270 235 206 210 166 193 178 196 238 250 266 256
104 95 72 32 33 48 78 57 15 7 333 313 302 303 303 309 306 302 297 284 286 280 283 275 263 272 235 238 343 206 169 151 165 223 261 272 272 268
105 94 53 18 50 78 59 24 16 6 295 303 310 310 313 312 306 301 294 279 265 268 283 272 269 253 206 177 198 145 138 215 131 216 208 257 265 282
100 76 54 71 84 66 28 30 31 338 320 324 323 320 319 311 308 302 298 294 287 280 273 264 249 239 204 188 168 170 114 248 192 192 210 215 230 235
85 67 81 90 82 54 21 20 8 359 339 329 324 314 312 316 312 315 313 319 310 303 287 253 234 220 190 218 151 145 179 190 181 184 212 255 266 218
132 106 83 66 33 7 3 355 352 350 341 335 321 315 320 319 316 318 314 312 302 306 296 265 232 199 184 174 144 185 180 208 211 208 185 252 262 246
101 112 107 102 248 293 332 335 338 336 335 326 314 314 320 315 316 318 311 310 309 306 300 229 178 138 141 248 200 176 180 196 197 203 195 194 277 278
124 131 145 181 227 324 336 332 323 327 329 316 306 311 315 311 321 315 312 315 312 306 308 230 179 169 175 196 281 196 184 194 168 202 188 178 209 264
133 151 170 179 224 318 330 321 309 316 311 302 299 293 299 306 313 308 308 314 312 310 308 249 195 199 180 196 173 256 217 159 165 204 235 269 246 269
151 180 174 155 316 314 296 292 262 274 280 281 276 280 280 303 301 301 300 308 306 308 309 302 241 185 107 105 64 301 287 230 186 175 174 141 207 325
177 200 146 38 315 305 285 262 260 266 270 273 267 260 269 284 293 298 304 307 305 301 304 299 274 169 160 184 189 201 260 319 260 240 205 188 165 213
117 71 13 327 310 288 288 283 287 280 282 284 290 291 274 282 286 292 298 296 298 302 310 307 300 169 193 195 170 176 182 255 223 306 288 233 231 239